Regional Weather Roundup
Issued by NWS

Home | Current Version | Previous Version | Text Only | Print | Product List | Glossary Off
Versions: 1 2 3 4 5 6 7 8 9 10 11 12 13 14 15 16 17 18 19 20 21 22 23 24 25 26 27 28 29 30 31 32 33 34 35 36 37 38 39 40 41 42 43 44 45 46 47 48 49 50

000
ASUS43 KFSD 040402
RWRSD

WEATHER ROUNDUP FOR SOUTH DAKOTA
NATIONAL WEATHER SERVICE SIOUX FALLS SD
1100 PM CDT MON AUG 03 2015

NOTE: "FAIR" INDICATES FEW OR NO CLOUDS BELOW 12,000 FEET WITH NO
SIGNIFICANT WEATHER AND/OR OBSTRUCTIONS TO VISIBILITY.


SDZ001>005-009-010-012>017-040500-
NORTHWEST AND NORTH CENTRAL SOUTH DAKOTA

CITY           SKY/WX    TMP DP  RH WIND       PRES   REMARKS
BUFFALO          N/A     70  53  54 E10       29.92R
FAITH            N/A     71  50  47 E7        29.98R
MOBRIDGE       CLEAR     72  52  49 E13       29.94S
$$

SDZ012>016-024>037-041>051-057-063-072>074-040500-
SOUTHWEST AND SOUTH CENTRAL SOUTH DAKOTA

CITY           SKY/WX    TMP DP  RH WIND       PRES   REMARKS
RAPID CTY ARPT MOCLDY    71  59  65 E10       29.99R
PIERRE         MOCLDY    69  56  62 SE7       29.95R
CUSTER         CLOUDY    66  56  70 NE9       30.12R
ELLSWORTH AFB  MOCLDY    71  60  67 SE12      29.98R
PHILIP         PTCLDY    72  60  66 E8        29.95S
PINE RIDGE     CLOUDY    73  57  57 E16       29.95R
WINNER         MOCLDY    71  59  65 SE6       29.97R
$$

SDZ004>011-016>023-039-040-040500-
NORTHEAST SOUTH DAKOTA

CITY           SKY/WX    TMP DP  RH WIND       PRES   REMARKS
ABERDEEN       CLEAR     63  55  75 E7        29.97R
WATERTOWN      CLEAR     64  52  64 CALM      29.99S
BROOKINGS      CLEAR     63  54  72 CALM      30.01S
SISSETON         N/A     58  53  84 CALM      29.96S
$$

SDZ017-020-022-023-036>040-048>070-040500-
SOUTHEAST SOUTH DAKOTA

CITY           SKY/WX    TMP DP  RH WIND       PRES   REMARKS
SIOUX FALLS    PTCLDY    64  60  87 NE3       29.98R
HURON          CLEAR     67  57  70 SE7       29.96S
MITCHELL       PTCLDY    65  59  81 E6        29.97S
YANKTON        PTCLDY    70  63  78 CALM      29.97R
$$

ABBREVIATIONS USED IN REMARKS
   TC - TEMPERATURE IN CELSIUS
  WCI - WIND CHILL INDEX
   HX - HEAT INDEX
  VSB - VISIBILITY




USA.gov is the U.S. government's official web portal to all federal, state and local government web resources and services.